Location: Bakov nad Jizerou
(50.4784°N, 14.9394°E)
Time: 13:49:58
(UTC+00:00)

USA 238 - Pass Details

Date: 16 June 2021
Orbit: 989 x 1223 km, 63.4° (Epoch: 16 July)

Event Time Altitude Azimuth Distance (km) Brightness Sun altitude
Rises 19:55:46 0° 222° (SW) 3,718 6.5 -5.6°
Reaches altitude 10° 19:58:18 10° 223° (SW) 2,789 5.8 -5.8°
Maximum altitude 20:04:53 88° 312° (NW) 1,054 3.8 -6.5°
Drops below altitude 10° 20:11:53 10° 44° (NE) 2,951 6.1 -7.2°
Sets 20:14:37 0° 45° (NE) 3,946 6.8 -7.5°
